Regional Weather Roundup
Issued by NWS

Home | Current Version | Previous Version | Graphics & Text | Print | Product List | Glossary On
Versions: 1 2 3 4 5 6 7 8 9 10 11 12 13 14 15 16 17 18 19 20 21 22 23 24 25 26 27 28 29 30 31 32 33 34 35 36 37 38 39 40 41 42 43 44 45 46 47 48 49 50
000
ASUS43 KFSD 201902
RWRSD

WEATHER ROUNDUP FOR SOUTH DAKOTA
NATIONAL WEATHER SERVICE SIOUX FALLS SD
200 PM CDT WED AUG 20 2014

NOTE: "FAIR" INDICATES FEW OR NO CLOUDS BELOW 12,000 FEET WITH NO
SIGNIFICANT WEATHER AND/OR OBSTRUCTIONS TO VISIBILITY.


SDZ001>005-009-010-012>017-202000-
NORTHWEST AND NORTH CENTRAL SOUTH DAKOTA

CITY           SKY/WX    TMP DP  RH WIND       PRES   REMARKS
BUFFALO          N/A     82  58  43 NW9       29.66S
FAITH            N/A     80  67  64 SE16      29.69F
MOBRIDGE       CLOUDY    78  68  71 SE10      29.69F
$$

SDZ012>016-024>037-041>051-057-063-072>074-202000-
SOUTHWEST AND SOUTH CENTRAL SOUTH DAKOTA

CITY           SKY/WX    TMP DP  RH WIND       PRES   REMARKS
RAPID CTY ARPT MOSUNNY   85  59  41 SE9       29.74F
PIERRE         CLOUDY    82  69  64 E13       29.68F
CUSTER         MOSUNNY   79  48  33 VRB5G17   29.89F
ELLSWORTH AFB  MOSUNNY   86  57  36 S10       29.74F
PHILIP         MOSUNNY   86  59  39 VRB7      29.69F
PINE RIDGE     SUNNY     86  56  35 VRB5      29.77F
WINNER         FAIR      84  70  62 SE6       29.72S
$$

SDZ004>011-016>023-039-040-202000-
NORTHEAST SOUTH DAKOTA

CITY           SKY/WX    TMP DP  RH WIND       PRES   REMARKS
ABERDEEN       MOSUNNY   86  66  51 SE18G24   29.74S
WATERTOWN      PTSUNNY   83  63  50 S14G23    29.79F
SISSETON         N/A     82  68  62 S15G22    29.77F
$$

SDZ017-020-022-023-036>040-048>070-202000-
SOUTHEAST SOUTH DAKOTA

CITY           SKY/WX    TMP DP  RH WIND       PRES   REMARKS
SIOUX FALLS    MOSUNNY   81  68  64 SE13      29.78F
HURON          PTSUNNY   82  65  56 SE12      29.73S
CHAMBERLAIN    CLOUDY    81  71  71 SE12      29.70F
MITCHELL       MOSUNNY   84  71  65 S14G22    29.74R
YANKTON        MOSUNNY   73  70  88 S17G23    29.77R THUNDER
$$

ABBREVIATIONS USED IN REMARKS
   TC - TEMPERATURE IN CELSIUS
  WCI - WIND CHILL INDEX
   HX - HEAT INDEX
  VSB - VISIBILITY




USA.gov is the U.S. government's official web portal to all federal, state and local government web resources and services.